Wind_Speed
36 36 36 37 37 38 38 38 39 40 40 41 41 42 44 45 46 46 47 48 50 49 47 46 46 46 48 49 51 54 56 58 60 62 62 62 60 59 59 59 60 60 60 60 61 62 63 63 63 62 62 63 64 64 65 67 68 69 70 70 71 71 67 64 65 69 69 63 62 59 48 45 47 46 45 45 47 50 49 46 46 53 62 69 75
37 36 36 37 38 38 38 38 39 40 40 41 42 43 44 45 46 46 47 48 48 46 45 45 45 47 49 51 53 55 57 59 61 62 61 59 58 57 57 58 59 59 59 59 60 62 63 64 63 62 63 64 65 66 68 69 69 71 71 70 70 69 65 62 60 64 67 62 59 56 47 45 45 44 46 46 46 48 49 47 43 46 58 67 72
37 36 36 37 38 38 38 38 39 40 40 41 42 44 45 45 45 46 47 48 46 44 44 45 46 49 51 52 54 56 58 60 61 61 59 57 56 56 56 57 59 59 59 58 59 61 63 65 64 64 66 67 68 69 70 70 69 69 69 67 66 64 60 57 57 60 62 59 57 54 47 48 48 43 41 41 43 44 45 46 45 46 55 63 67
37 36 36 37 37 37 38 39 39 40 41 42 43 44 45 44 45 46 47 46 43 43 44 46 48 50 52 53 55 56 58 60 60 59 58 56 56 56 56 58 59 60 60 59 60 62 64 65 66 67 69 71 72 71 69 67 65 65 65 62 59 57 54 51 52 55 57 55 55 52 47 49 50 44 38 35 37 42 43 42 42 45 53 61 66
38 37 37 37 37 37 38 39 40 40 41 42 43 44 44 44 45 46 46 43 41 43 46 48 50 51 52 54 55 56 58 59 59 58 57 56 56 56 57 59 60 60 61 60 61 63 64 66 67 69 71 72 71 68 63 61 60 59 58 55 51 49 46 45 48 51 52 53 55 51 46 48 50 46 41 37 35 40 44 42 38 39 48 60 67
38 38 37 37 37 38 39 39 40 40 41 42 43 43 43 43 45 46 44 41 41 44 47 49 50 51 53 54 54 56 57 57 57 57 56 55 55 56 58 59 60 61 61 61 62 63 64 66 68 68 67 68 66 61 56 54 53 52 50 46 43 41 41 41 44 45 46 48 51 47 43 45 46 43 40 38 38 41 44 42 36 36 44 57 67
39 38 37 37 37 38 39 39 39 40 41 42 42 43 42 43 44 44 40 39 42 45 47 48 50 51 52 53 54 55 55 55 56 55 55 55 55 56 58 59 60 61 61 61 62 63 64 65 66 63 61 61 57 53 50 47 45 43 41 39 37 37 38 40 41 41 43 45 45 44 42 40 39 40 40 40 41 44 45 40 34 34 43 56 65
40 38 37 37 37 38 39 39 39 40 40 41 42 42 42 43 43 40 38 40 43 45 46 47 49 50 51 52 52 53 53 53 54 54 54 55 56 57 59 60 61 62 61 61 61 63 64 63 61 56 53 52 49 47 44 40 38 38 37 37 36 37 38 39 40 42 43 43 42 43 44 40 36 36 37 39 43 45 43 38 33 32 42 58 65
40 38 37 37 38 39 39 39 39 40 40 40 41 41 41 42 40 36 37 40 42 44 45 46 48 49 50 51 51 51 51 52 52 53 54 55 56 58 60 62 63 63 63 62 62 63 62 60 57 51 45 43 42 42 39 35 35 36 36 36 36 36 37 38 40 42 41 42 43 45 45 44 42 40 39 41 43 44 41 38 34 32 40 59 66
39 38 37 37 38 39 39 39 39 39 40 40 40 40 41 40 36 34 36 39 41 42 44 45 47 48 48 49 49 50 50 51 52 52 53 55 56 59 61 62 63 63 62 61 61 62 59 55 53 47 39 35 36 38 37 34 34 36 36 35 35 37 38 38 40 41 41 41 43 46 48 49 47 46 48 49 47 43 40 39 37 32 37 58 65
39 38 37 38 39 40 40 40 39 39 39 38 39 40 39 36 33 33 36 37 39 41 42 44 45 46 47 48 48 49 50 51 52 52 53 55 57 59 61 62 62 61 61 61 61 60 55 51 48 43 36 32 31 33 35 35 35 35 36 36 37 39 41 41 41 41 42 43 44 47 52 55 53 48 48 51 48 42 39 39 39 34 35 53 63
38 38 38 39 40 40 40 40 39 38 38 38 38 39 36 32 31 32 34 36 38 40 41 43 44 45 46 47 48 49 49 50 51 52 53 55 57 60 61 61 61 60 61 61 61 58 54 50 45 39 33 31 30 30 32 34 35 36 37 38 39 40 42 44 45 44 43 45 46 49 53 57 58 53 49 48 45 40 37 37 37 34 34 48 60
38 39 39 40 41 40 40 39 39 38 37 37 38 36 33 30 30 31 33 35 37 39 40 42 43 45 46 47 48 49 49 50 51 51 53 55 58 60 61 61 61 60 61 61 60 57 54 49 44 37 33 30 30 30 31 32 34 35 37 39 41 42 43 45 49 48 47 47 50 53 55 57 60 59 54 50 46 42 39 37 34 32 34 45 58
39 39 40 41 41 41 40 39 38 37 37 36 36 33 30 29 30 30 32 34 37 39 40 41 43 45 46 48 48 49 49 50 51 51 52 55 57 59 60 60 60 60 61 62 60 57 54 49 43 38 34 32 30 30 31 33 34 36 38 41 43 45 47 50 52 52 50 51 53 55 55 55 60 62 60 57 54 48 44 41 37 33 35 45 57
39 40 41 41 41 41 40 39 37 36 36 35 33 30 28 29 29 29 31 34 36 38 40 41 43 45 46 48 49 49 49 50 51 51 51 53 56 58 59 60 61 61 63 63 60 57 54 49 43 39 37 35 33 31 32 34 37 39 41 43 45 48 51 51 51 52 52 53 56 58 56 55 57 60 61 60 57 52 47 44 41 36 36 45 58
40 40 41 41 41 41 39 37 36 35 34 33 30 28 28 29 28 29 31 33 36 38 40 42 44 45 46 48 49 50 50 51 52 51 51 52 54 57 58 60 61 63 65 66 63 59 55 50 43 39 38 37 35 33 33 35 38 41 43 45 48 52 53 49 47 47 50 53 56 58 58 57 56 57 58 56 51 49 47 46 43 39 37 44 58
41 41 41 41 41 40 38 36 34 34 33 31 28 27 28 28 28 28 31 33 36 38 40 42 44 46 47 49 50 51 51 52 53 52 52 53 54 56 58 60 61 64 66 66 64 61 57 51 45 40 38 38 37 35 34 36 38 40 43 46 49 51 50 47 45 42 44 51 56 57 56 56 55 56 57 56 51 47 48 48 45 41 39 44 58
40 40 40 40 40 38 36 34 33 33 31 28 27 28 28 27 27 28 30 33 36 38 40 42 44 46 48 49 51 52 52 53 54 54 53 53 55 57 59 60 61 63 65 65 63 61 57 51 45 40 37 37 37 36 35 35 37 40 42 46 49 50 46 43 41 38 38 46 52 53 53 52 52 53 57 59 56 51 50 51 46 41 41 47 56
39 40 40 40 39 37 35 33 32 31 29 27 27 28 27 26 26 28 31 33 35 37 40 42 45 46 48 49 50 52 53 54 55 55 54 54 56 57 59 60 60 62 65 65 63 60 57 51 45 39 35 34 35 36 34 34 37 40 42 45 48 48 43 39 36 33 34 40 46 47 46 47 48 51 54 58 58 56 53 50 46 43 44 49 54
39 39 40 39 37 35 33 32 31 29 27 27 28 27 26 25 25 28 31 33 35 37 40 42 45 47 48 49 50 51 53 54 55 55 54 54 55 56 58 59 59 61 63 64 62 59 56 51 46 39 33 31 32 34 34 35 37 40 42 44 46 44 39 34 32 30 32 38 43 45 44 45 47 50 52 55 57 57 52 47 45 44 46 50 54
38 39 39 38 35 33 32 31 29 27 26 27 27 26 25 25 25 28 31 33 34 37 39 42 45 47 48 49 51 52 54 54 54 54 54 53 54 55 56 58 59 61 62 61 60 58 55 50 45 38 33 30 29 31 33 35 37 39 40 41 41 38 34 31 30 30 32 36 40 43 45 46 49 52 55 55 55 53 48 43 43 43 46 51 55
38 39 38 36 33 31 30 29 26 26 26 26 26 25 24 24 25 28 30 32 34 36 39 42 44 47 48 50 51 52 53 54 54 54 53 53 53 54 56 57 58 60 60 59 57 56 53 48 42 36 32 29 27 29 33 34 35 36 36 34 33 32 31 30 29 30 33 34 35 39 43 46 49 52 55 55 53 50 44 40 40 43 47 52 55
38 39 37 34 32 30 29 27 25 25 25 25 24 24 23 23 25 28 30 32 33 35 38 41 44 46 48 50 51 51 52 53 54 54 53 53 53 54 55 57 58 58 58 57 55 53 51 46 39 33 30 27 26 29 32 34 34 32 29 27 28 30 30 30 29 30 32 33 34 37 41 46 50 51 52 51 49 47 42 39 40 43 48 53 55
39 38 35 32 30 29 27 25 25 25 24 23 23 23 22 23 25 27 29 31 33 35 38 41 43 46 48 49 51 51 52 53 53 53 53 53 53 53 55 56 57 57 56 55 52 49 48 43 36 31 27 25 26 29 31 31 30 27 23 22 25 27 28 29 31 31 32 33 35 38 41 46 49 50 48 47 47 46 43 41 43 44 47 52 56
38 36 32 31 30 28 26 25 25 24 23 22 22 22 22 22 24 26 28 31 33 35 38 41 43 46 48 49 51 51 52 53 52 52 52 52 53 53 55 56 56 56 55 53 48 45 43 40 35 28 25 25 28 28 26 25 24 22 20 20 23 24 24 25 27 31 34 35 36 38 40 44 47 46 46 47 47 47 46 43 44 45 46 51 57
38 35 31 30 29 27 26 26 25 23 22 22 21 21 21 21 22 25 27 30 32 35 38 41 43 46 47 49 50 51 52 53 53 53 52 52 53 54 55 57 57 56 55 51 46 40 38 35 31 26 25 27 27 23 19 19 20 19 18 19 22 22 21 22 24 28 32 34 35 38 40 42 43 42 43 46 48 48 46 44 45 46 46 51 58
37 33 31 30 29 27 26 26 24 23 21 21 20 20 20 21 22 24 27 29 32 34 37 40 43 45 47 49 50 51 52 53 53 53 52 52 53 54 55 57 58 57 56 53 48 42 36 32 28 25 24 24 21 17 14 15 15 15 15 18 21 21 21 21 23 26 30 33 34 37 38 38 40 41 42 45 46 46 45 45 45 46 47 50 57
36 33 31 30 28 27 27 26 24 22 21 20 20 19 20 20 22 24 27 29 31 33 36 40 43 46 48 49 50 51 52 52 53 52 52 52 53 54 54 56 58 58 57 55 52 46 37 31 26 24 23 20 16 14 13 13 14 14 16 18 20 21 21 21 21 22 25 28 30 31 31 30 33 39 41 43 44 43 43 45 45 46 47 50 55
35 33 31 29 28 28 27 25 23 22 21 20 19 19 19 20 22 25 27 29 31 33 36 39 42 45 47 48 50 51 51 52 51 50 50 50 52 53 53 53 56 57 57 56 54 47 38 31 25 22 22 19 15 12 11 13 15 17 17 17 18 19 20 21 21 20 20 21 23 24 23 22 26 33 37 39 40 40 41 43 44 44 46 51 56
35 32 30 29 28 28 26 24 22 21 20 19 19 18 18 19 22 25 27 29 31 33 36 39 42 45 46 47 48 49 49 49 49 48 47 47 48 49 50 51 53 54 54 54 52 47 39 33 28 24 22 21 16 12 11 12 14 17 19 19 18 18 19 21 22 21 20 20 19 19 18 19 21 26 31 34 36 37 39 41 42 44 47 52 58
34 31 30 29 28 26 24 22 22 20 20 20 19 18 18 19 22 24 26 28 30 33 35 38 41 43 45 45 46 46 47 46 46 46 45 45 45 47 48 49 50 52 52 51 50 45 39 34 31 27 24 23 20 16 14 13 15 17 19 19 19 20 22 22 23 23 21 20 18 17 16 16 19 24 27 31 34 35 37 39 41 44 48 53 58
33 31 30 29 27 25 23 22 21 20 20 20 19 19 19 21 23 24 26 27 29 32 34 37 40 42 43 44 44 44 45 45 44 44 43 43 44 45 47 49 49 49 48 47 46 42 37 33 32 29 26 24 22 20 19 18 18 19 20 20 20 23 25 26 25 25 23 21 19 18 16 17 19 23 26 29 32 33 36 39 41 43 48 53 56
32 31 30 29 27 25 23 22 21 20 20 19 19 19 20 22 24 26 27 28 30 31 33 36 39 40 41 43 43 42 42 42 42 41 41 41 42 43 45 47 48 47 45 44 43 40 36 33 32 31 28 26 24 22 21 20 20 21 23 23 22 22 23 25 26 26 26 24 21 19 19 19 20 23 25 28 30 32 35 38 40 42 46 51 55
32 32 31 29 26 25 24 22 21 20 20 20 19 19 20 22 24 26 28 29 30 32 33 35 37 38 39 40 40 40 40 39 39 39 39 40 41 41 41 42 42 42 42 42 42 40 36 33 32 31 29 27 25 23 23 22 21 20 21 22 22 20 20 23 25 26 26 26 24 21 20 20 20 22 25 27 29 32 35 37 39 41 44 48 53
32 32 31 28 26 25 24 22 21 20 20 20 20 19 21 23 24 25 27 28 29 31 33 34 35 37 38 38 38 38 38 37 37 38 38 39 39 39 39 38 38 39 40 40 41 40 37 34 33 33 31 29 26 24 23 21 21 20 19 19 20 20 20 20 22 24 25 25 24 23 22 21 20 21 23 25 28 33 36 37 39 41 43 47 50
32 32 30 28 27 25 24 22 21 20 20 20 20 20 21 23 24 26 27 28 29 31 32 33 35 37 38 37 37 36 35 35 35 36 37 38 38 38 38 38 39 40 40 40 40 39 38 36 35 34 33 31 28 26 23 21 20 19 18 18 19 20 20 19 18 20 21 22 23 23 22 20 19 20 23 26 29 33 36 38 39 41 43 46 48
32 32 30 28 27 25 23 22 21 20 20 20 20 21 22 23 25 26 28 29 30 31 32 33 34 35 36 36 35 34 33 33 34 34 34 34 35 36 37 38 39 40 40 41 40 39 38 38 37 36 34 32 30 27 24 22 21 19 18 17 17 18 19 17 15 15 18 19 20 20 18 16 17 20 22 24 27 32 37 39 41 42 43 45 47
33 32 31 28 26 25 22 21 20 20 20 20 20 21 22 24 26 27 28 29 30 31 31 32 32 33 33 34 33 33 33 33 32 31 32 33 34 35 36 37 38 39 40 40 40 39 38 38 39 38 36 34 31 28 25 22 20 20 19 17 16 16 16 16 14 12 13 15 15 15 15 15 17 19 21 22 26 32 38 40 41 42 44 45 48
34 32 30 28 26 23 21 20 20 20 20 20 20 21 23 25 26 28 29 29 30 31 31 31 31 31 31 32 32 32 33 32 31 30 32 33 34 35 35 35 36 37 38 39 39 39 38 38 39 40 39 36 33 29 25 21 19 19 19 17 16 15 15 15 13 11 10 11 11 12 14 16 17 18 20 21 26 33 39 42 42 44 45 46 48
33 31 29 27 24 22 20 20 20 20 20 20 20 21 23 25 26 28 29 29 30 30 30 30 30 30 30 30 30 31 32 32 31 31 32 32 34 34 34 35 35 36 37 38 39 38 38 37 39 40 40 38 35 31 25 20 18 18 18 16 15 14 14 14 14 12 10 10 10 10 11 15 18 18 19 22 27 34 41 44 44 45 46 46 47
32 30 27 25 22 21 20 20 20 20 19 19 20 22 24 25 27 28 28 28 29 29 29 28 28 28 28 28 28 29 30 30 30 30 31 32 33 34 34 34 35 35 36 36 37 37 37 37 38 40 40 39 37 32 26 21 19 19 18 16 14 13 13 14 14 14 11 9 9 9 9 12 16 17 18 21 27 35 42 45 45 46 46 44 45
30 28 25 23 21 20 19 19 19 18 18 19 20 22 23 25 26 27 27 27 27 27 27 26 26 26 26 26 26 27 27 28 28 28 29 30 31 32 33 34 35 35 36 36 36 37 37 37 38 39 40 39 37 34 29 24 21 20 19 17 14 11 11 12 14 15 13 10 9 9 7 8 12 15 17 19 24 32 42 46 47 48 47 45 45
28 26 23 21 20 19 18 18 18 18 18 19 20 21 23 24 25 25 25 25 25 25 25 24 24 24 24 24 24 24 24 25 25 26 27 29 30 31 32 32 33 34 35 35 35 35 35 36 37 38 39 39 37 34 31 27 24 22 21 18 15 12 9 9 12 15 15 13 11 9 7 5 5 9 14 18 21 28 39 47 49 50 50 48 46
26 23 21 20 19 17 17 17 17 17 18 18 19 21 22 23 23 23 23 23 23 23 22 22 22 22 22 21 21 21 21 22 23 24 26 27 28 30 30 31 32 33 33 33 34 34 34 34 35 36 37 37 36 33 30 28 26 25 23 19 16 13 9 6 8 11 14 13 12 10 8 6 3 3 8 15 19 25 35 45 49 50 51 50 48
23 21 19 18 17 16 17 17 16 17 17 17 18 20 21 21 21 21 21 21 21 20 20 20 20 20 20 19 19 19 19 20 22 23 25 26 27 29 30 30 31 31 32 32 33 33 33 33 33 34 36 37 36 32 29 27 26 25 23 20 17 15 12 8 5 6 9 11 11 8 7 7 5 1 2 9 17 23 29 38 44 46 49 52 50
21 19 18 17 16 16 16 16 16 16 16 16 18 19 19 20 19 19 19 19 19 18 18 19 19 18 18 17 17 17 18 19 21 22 24 25 27 28 29 30 30 31 31 31 32 32 32 32 32 33 35 36 36 34 29 27 27 26 24 21 19 17 16 14 10 6 5 7 8 7 6 6 7 5 2 4 13 21 26 31 38 42 45 49 51
19 17 16 16 15 16 15 15 15 15 15 16 17 18 18 18 17 17 17 17 17 17 17 18 18 17 16 15 15 16 17 18 20 22 23 25 26 27 28 29 29 29 30 30 30 31 31 31 31 33 34 36 36 34 30 29 29 28 26 23 21 20 19 17 14 10 6 4 4 4 4 5 7 8 6 4 8 18 25 28 33 39 42 44 48
17 15 15 15 15 15 14 14 14 14 14 15 16 16 17 16 16 16 16 16 16 16 16 17 17 16 15 14 14 15 16 17 19 21 23 24 26 27 28 28 28 29 29 29 29 30 31 31 30 31 33 35 36 34 31 30 30 29 28 26 25 23 21 19 16 13 9 5 3 2 4 5 6 9 9 6 5 13 24 27 29 34 39 41 43
15 14 14 13 13 13 13 13 13 14 14 15 15 15 15 15 15 15 15 15 15 15 15 16 16 15 14 13 13 14 15 17 19 20 22 24 25 26 27 28 28 28 28 29 28 29 30 30 30 30 31 33 35 34 32 32 32 31 30 29 27 25 23 20 16 14 11 7 3 1 4 5 5 7 9 7 4 8 20 27 28 30 35 39 40
14 13 12 11 11 11 12 12 13 13 13 14 15 14 14 14 14 15 15 15 15 15 15 15 15 14 13 13 13 13 15 16 18 19 21 23 24 25 25 26 26 27 28 28 29 29 29 29 29 29 29 31 34 34 32 32 33 32 31 31 29 27 24 22 18 15 12 8 4 2 4 6 7 8 8 8 5 5 14 24 29 29 32 36 38
13 11 9 9 10 11 11 12 12 13 13 14 14 14 14 13 14 14 14 15 15 15 15 15 14 13 13 12 12 13 14 15 17 19 20 21 23 23 24 24 25 25 27 27 28 29 29 29 29 29 29 31 33 33 32 32 34 33 30 30 30 28 27 25 22 18 15 12 8 4 3 5 8 8 8 7 6 4 9 18 25 28 30 32 35
Wind_Direction
289 281 273 269 267 268 270 272 275 279 282 284 287 290 292 294 295 297 299 302 303 303 303 305 308 309 309 309 309 309 309 309 309 307 307 308 308 309 309 307 305 303 302 300 299 297 296 295 295 294 293 291 290 288 286 285 283 282 281 280 279 279 278 277 276 275 274 270 268 271 265 251 246 246 249 257 262 253 239 232 233 232 234 236 232
289 282 273 268 267 268 270 272 275 279 281 283 286 289 291 293 295 297 300 302 302 302 304 307 308 308 309 309 309 310 310 310 308 307 308 309 310 310 309 307 305 302 301 300 299 297 296 296 295 295 293 291 290 288 286 284 283 281 280 279 278 277 276 275 272 270 270 266 265 269 261 245 247 251 250 257 266 258 243 235 238 235 232 232 230
288 281 273 269 267 268 270 272 275 278 280 282 285 288 290 292 294 297 300 301 302 303 305 307 308 308 309 310 310 311 311 309 308 308 309 310 310 310 309 306 304 302 301 300 299 298 297 297 297 295 294 292 290 289 286 284 282 281 281 279 278 277 275 272 268 266 266 264 264 267 257 242 245 249 248 256 262 255 243 239 242 240 232 229 225
285 280 273 269 268 268 270 272 274 276 279 281 284 287 290 292 294 298 300 301 302 304 306 307 309 310 310 311 311 312 310 309 308 309 310 311 311 311 309 306 304 303 303 303 303 301 300 300 299 297 294 293 291 289 287 285 283 282 281 279 277 276 272 267 263 264 266 265 265 266 256 243 243 245 245 252 256 251 242 238 239 240 234 227 221
282 278 272 269 267 268 269 270 272 275 278 281 283 286 289 291 295 298 299 300 302 305 306 308 310 311 311 312 312 311 310 309 309 310 311 312 312 311 309 306 305 305 306 306 305 303 302 301 299 297 295 293 291 290 288 285 283 282 280 278 276 272 267 262 260 262 264 265 267 267 257 245 245 248 247 250 254 252 245 237 234 238 235 227 220
278 276 272 268 267 267 268 269 271 274 277 280 283 286 289 291 295 297 298 300 303 306 308 310 311 312 312 313 312 311 310 309 311 312 313 314 313 311 309 307 306 306 307 306 305 303 302 301 299 298 295 292 291 289 287 284 282 280 278 276 273 268 265 265 264 263 265 266 267 265 254 244 246 252 253 253 257 256 250 242 237 238 234 225 219
275 274 270 267 265 266 267 268 271 274 277 280 283 285 288 292 295 297 298 302 305 307 310 312 313 313 313 313 312 311 311 312 313 314 314 314 313 311 310 308 308 308 308 308 306 305 304 303 301 300 295 292 290 288 286 283 280 278 276 273 269 266 266 268 268 267 267 266 260 254 249 246 250 259 260 259 261 259 253 247 242 240 232 221 217
273 272 269 266 264 265 266 267 270 273 276 279 283 285 289 293 295 297 299 304 307 310 313 314 315 315 314 314 313 313 314 315 315 316 315 314 314 313 312 311 311 311 311 311 310 309 307 306 304 301 295 291 289 287 284 281 276 274 272 268 264 263 266 266 266 266 267 263 251 241 242 245 251 259 261 259 259 257 253 249 249 247 231 218 212
271 270 266 263 262 263 264 266 269 272 275 279 282 286 290 293 295 297 301 306 310 313 316 317 316 316 316 316 316 316 317 317 317 316 316 315 315 315 314 314 314 315 315 314 313 312 310 309 307 302 295 289 286 284 281 277 273 272 269 265 262 263 267 267 266 267 267 262 248 236 235 238 243 250 255 257 257 254 249 245 250 253 232 216 209
269 267 263 261 260 261 263 265 268 271 275 279 282 287 291 293 294 298 303 308 313 316 319 319 319 319 319 319 319 319 319 319 318 318 317 316 316 316 315 315 315 315 315 315 315 314 313 312 309 304 296 288 283 280 278 273 270 269 267 263 262 263 266 267 267 266 266 262 250 237 233 234 238 246 253 256 256 253 248 245 250 254 232 215 208
266 263 260 259 258 260 262 264 267 271 275 279 283 287 291 291 293 299 305 311 316 320 322 322 322 323 323 322 322 321 321 320 319 319 318 317 316 315 315 315 316 316 317 317 317 315 314 313 309 304 297 290 282 275 274 271 269 267 265 262 263 265 268 270 270 266 263 261 252 240 235 234 237 243 250 255 256 253 251 250 253 254 233 215 208
263 260 258 257 257 258 260 263 267 271 275 279 283 287 288 288 292 300 306 313 319 323 326 327 327 328 327 326 325 323 322 321 321 320 318 317 316 315 315 316 317 318 318 319 319 317 316 314 309 302 295 292 287 278 273 269 267 265 263 261 263 266 268 271 272 267 261 259 254 244 237 235 237 241 247 253 254 252 254 255 255 256 241 220 209
260 257 256 255 256 257 259 263 266 270 274 279 284 286 284 286 293 300 308 316 322 327 330 332 332 332 330 329 327 325 323 322 322 320 318 316 315 315 316 318 319 320 320 321 320 319 317 314 309 300 292 289 287 283 278 272 267 266 264 264 267 269 270 270 270 266 260 256 252 246 239 237 237 238 243 251 253 253 257 257 255 257 249 229 214
257 256 255 254 255 257 259 262 266 270 275 279 283 282 280 285 294 302 311 318 324 330 334 335 336 335 333 332 329 327 325 324 323 320 317 315 315 316 318 320 321 320 320 322 321 320 318 316 310 299 290 285 283 282 280 276 273 272 270 271 273 273 272 270 267 264 259 252 249 246 242 239 239 239 242 247 253 257 259 256 254 256 251 236 219
257 256 254 253 255 256 258 262 266 270 275 279 279 276 278 286 295 304 312 320 327 333 336 338 338 337 335 333 331 329 327 325 323 320 317 315 315 318 320 322 323 322 321 322 323 321 320 317 311 300 290 283 280 278 278 277 278 278 278 279 279 277 275 271 267 263 257 250 247 246 243 240 239 240 242 246 252 257 257 257 256 254 252 240 222
258 255 253 253 254 256 259 263 266 270 275 276 274 272 278 287 296 305 314 321 328 334 338 340 339 338 336 334 332 331 328 325 323 321 318 317 317 320 323 324 326 324 323 323 324 322 321 318 312 301 290 283 279 276 275 275 277 279 281 283 285 283 281 278 272 264 256 249 245 245 244 241 237 238 241 244 249 254 255 258 256 252 250 239 224
257 254 252 252 253 256 259 262 266 270 273 271 268 271 279 287 297 306 315 322 329 334 338 340 340 339 337 334 333 331 328 325 324 323 321 320 320 322 325 326 326 325 323 323 323 322 320 319 315 305 294 285 280 276 274 272 273 276 278 281 284 284 284 283 279 269 255 246 243 243 245 244 240 239 238 239 243 250 255 257 253 250 248 237 224
256 253 252 251 253 255 258 261 266 269 269 265 265 271 279 288 298 307 315 322 329 333 337 340 339 338 336 333 331 329 327 325 325 325 324 323 323 325 326 326 326 325 324 323 323 322 320 319 317 310 299 290 282 276 273 272 272 274 276 278 281 282 281 281 281 272 253 242 240 241 244 245 244 242 239 238 240 245 252 253 250 249 245 236 227
255 252 251 250 252 254 256 261 265 266 264 261 264 271 279 288 299 308 315 322 328 332 336 339 339 337 334 332 329 326 326 326 327 328 328 327 327 327 327 327 327 327 325 324 324 323 321 319 318 314 305 295 284 275 271 271 272 274 275 276 279 280 280 280 279 270 252 239 236 238 242 243 243 243 241 239 239 240 246 248 247 247 241 235 230
253 250 248 248 250 252 256 261 263 261 258 259 264 272 280 290 300 309 316 323 327 331 335 338 338 337 334 331 328 326 326 327 329 330 331 330 329 328 328 329 330 329 328 326 325 324 321 318 317 315 309 298 284 273 269 268 270 272 273 274 276 279 280 279 276 266 251 239 234 233 234 234 237 238 238 238 237 237 241 242 242 246 240 234 232
250 247 246 246 247 251 255 259 259 255 255 259 265 273 281 290 302 310 317 322 326 329 333 336 337 336 334 331 328 327 327 329 331 332 332 331 330 329 330 332 334 333 331 329 327 324 321 318 317 315 310 299 283 272 267 266 267 269 271 274 277 278 276 276 275 266 253 243 238 236 234 233 234 235 235 236 235 236 239 239 241 245 239 233 232
246 243 242 243 245 251 255 256 253 250 253 259 266 274 282 292 303 310 316 321 325 328 332 334 335 335 333 331 329 328 329 331 333 333 333 332 331 331 332 335 337 335 333 331 328 323 321 319 317 314 310 298 282 274 268 264 265 269 273 278 280 277 271 269 271 266 254 244 239 237 235 235 237 237 237 237 237 237 239 241 243 244 237 233 232
240 238 239 241 245 251 253 250 247 247 253 260 268 276 284 294 303 311 316 320 323 327 331 333 334 335 334 331 330 330 331 333 334 334 334 333 332 332 335 337 338 337 335 333 329 323 320 319 317 314 308 294 282 277 271 265 266 272 276 279 279 276 270 263 261 259 253 245 240 237 234 234 236 238 238 239 239 239 241 243 245 243 237 233 229
235 235 237 239 245 250 248 244 243 246 253 262 270 278 286 295 304 311 316 319 323 326 330 333 334 335 334 333 332 333 334 334 334 334 334 333 333 334 336 338 338 338 337 335 330 323 319 318 317 314 306 291 282 281 276 270 271 272 272 275 276 273 268 260 255 253 249 243 239 237 236 236 236 236 237 238 240 241 243 244 244 242 237 231 227
233 233 235 238 243 245 241 239 242 246 254 264 271 279 288 297 306 312 316 319 323 327 330 333 334 334 334 334 335 335 335 334 334 335 335 334 334 335 337 338 338 338 339 337 333 326 319 316 315 312 304 294 290 288 281 275 269 263 263 272 274 272 271 265 258 254 252 248 244 242 240 240 239 238 237 238 239 240 242 242 240 239 234 228 226
232 231 233 236 239 238 235 236 240 246 255 265 272 280 289 298 308 314 316 319 323 327 330 332 333 334 335 336 336 336 335 335 335 336 336 335 335 336 338 337 337 338 339 339 337 330 320 316 313 309 304 301 297 291 283 274 263 252 255 268 271 271 273 270 264 260 258 257 256 254 252 249 246 243 240 239 238 238 238 238 237 235 230 225 226
230 230 232 234 233 231 231 234 240 247 256 265 273 281 290 300 309 314 317 320 324 328 331 332 334 335 337 337 337 337 337 336 336 337 337 336 336 337 338 337 337 338 340 341 341 336 326 319 316 311 309 306 298 289 282 275 262 252 255 266 270 270 270 269 267 264 261 260 261 261 261 259 253 247 243 241 238 235 234 235 236 233 226 224 227
228 228 230 230 228 228 230 234 240 247 257 265 272 281 291 302 310 313 316 320 324 328 331 333 335 337 337 338 338 337 338 337 337 337 337 337 337 337 338 338 338 339 340 342 343 339 331 324 320 318 317 313 298 288 287 278 267 260 261 266 271 272 271 268 266 264 262 261 260 259 259 259 251 244 242 240 236 233 231 233 235 231 225 224 226
225 227 227 226 225 226 230 234 239 248 257 264 272 282 293 304 310 313 316 321 325 329 332 334 337 337 337 337 338 338 338 338 337 337 338 338 337 337 339 340 339 339 341 342 342 339 332 329 328 323 321 317 302 290 293 286 272 262 260 268 274 274 273 268 263 263 266 266 264 258 253 251 244 237 236 236 233 230 230 233 234 231 225 224 225
225 226 224 222 222 226 230 234 240 249 258 264 272 283 294 304 308 311 315 320 324 329 333 335 336 336 336 337 337 337 338 337 336 336 337 337 336 337 339 340 339 340 341 341 340 338 333 333 336 331 326 324 315 300 296 292 280 267 265 272 274 272 271 269 263 262 262 262 265 263 253 245 237 231 231 232 230 230 230 232 233 230 225 223 223
224 224 221 219 221 226 230 234 241 250 257 264 273 283 292 300 305 308 314 319 325 330 333 334 335 335 335 336 336 337 338 336 335 335 336 336 337 338 340 341 341 341 342 341 341 339 334 335 339 337 331 330 326 316 305 296 287 279 274 275 276 275 275 273 267 262 258 253 252 253 248 240 233 230 230 230 229 228 227 228 230 229 224 222 223
222 221 218 217 221 225 229 234 241 249 257 265 274 284 293 299 303 307 314 320 325 330 332 333 333 333 334 335 335 336 337 336 335 335 335 337 340 341 341 341 342 342 343 342 341 340 337 339 343 341 334 331 329 325 317 305 294 287 282 280 279 277 275 273 267 260 257 252 245 236 229 227 227 227 227 227 226 224 224 225 228 227 222 222 223
220 217 216 217 220 225 228 233 241 249 256 264 273 283 293 299 303 309 315 321 325 329 330 331 332 332 332 333 334 335 336 336 335 334 335 340 343 344 343 343 342 342 342 342 342 342 341 343 346 346 339 332 328 326 324 317 305 293 285 282 281 276 270 268 264 256 251 249 244 235 225 220 220 221 221 222 223 223 223 225 225 224 222 221 222
217 215 214 216 220 224 228 233 241 248 256 264 272 282 291 297 302 309 315 320 325 328 329 330 330 330 330 332 333 335 337 337 335 335 339 343 345 345 345 343 341 341 342 343 345 346 345 345 348 349 345 338 332 328 326 323 317 305 289 282 283 281 273 267 263 257 249 243 240 238 233 226 224 223 221 221 223 225 225 224 221 220 219 219 219
214 212 213 216 219 223 228 234 241 249 256 263 272 281 288 294 300 307 313 318 323 326 327 328 329 329 330 331 333 335 338 338 336 337 342 345 345 344 343 340 339 341 344 346 349 350 349 349 351 352 349 344 338 332 327 323 321 315 300 286 282 283 282 277 268 258 249 241 236 234 232 230 228 227 225 225 227 228 225 220 216 215 215 216 217
211 210 211 215 218 222 228 235 242 250 257 263 272 280 287 293 299 304 310 316 320 323 326 328 328 329 330 331 334 337 338 337 337 341 344 345 344 343 341 341 343 346 349 351 352 352 352 354 355 354 352 348 343 337 331 324 321 318 310 298 287 281 282 284 274 257 246 239 234 231 228 226 226 228 229 228 227 224 219 212 210 211 213 214 215
209 209 212 215 218 223 229 236 242 251 258 265 273 281 287 293 298 303 309 314 319 322 326 327 328 329 330 331 334 337 337 337 342 346 346 345 344 343 343 345 348 350 352 354 354 353 354 357 358 357 354 351 347 343 336 327 321 318 313 306 299 289 282 284 281 261 243 237 235 232 227 224 225 228 229 226 220 215 210 205 206 208 210 212 214
206 208 211 215 219 224 230 236 244 252 259 266 274 282 287 292 297 302 308 314 318 321 324 325 326 327 328 329 333 335 336 341 348 349 347 345 345 346 348 350 351 353 356 357 356 354 355 359 1 359 357 354 351 348 343 335 326 321 314 307 304 298 288 284 284 268 244 236 237 233 227 224 226 227 227 221 212 206 203 201 203 206 208 209 211
205 208 211 214 219 224 230 238 246 253 260 268 276 282 287 291 296 302 308 313 317 321 322 323 324 325 326 329 332 334 336 342 348 349 348 347 348 349 351 352 354 356 358 359 358 356 356 358 2 1 358 356 354 350 347 343 338 330 320 309 301 298 290 281 280 273 250 237 239 237 229 226 227 227 224 217 208 202 201 199 200 204 207 206 207
205 208 211 214 219 225 232 239 247 255 262 270 277 282 287 291 296 302 308 313 316 319 321 322 323 324 326 329 332 334 337 343 348 350 350 350 350 351 352 354 356 359 0 1 1 359 357 360 3 2 359 357 355 350 348 350 350 344 333 319 304 296 289 278 274 273 260 242 240 245 237 227 224 224 221 214 205 201 199 199 199 202 205 205 205
205 208 211 215 219 226 234 241 249 257 264 272 278 282 287 292 297 303 308 312 315 317 319 320 321 323 326 330 333 336 340 345 349 351 351 351 352 354 355 356 358 360 1 2 2 1 0 2 5 4 0 358 355 351 350 355 360 356 347 336 319 300 287 275 269 269 266 251 240 248 247 228 219 218 216 211 206 201 198 198 199 200 201 201 203
204 207 212 216 220 228 236 243 252 260 266 272 278 283 288 294 299 304 308 312 314 316 317 319 321 323 327 331 335 339 343 348 351 352 353 354 355 357 358 359 360 1 2 2 2 2 3 5 7 6 2 358 356 353 352 355 2 2 356 348 337 316 290 272 262 261 263 258 245 243 248 230 214 211 210 209 206 203 199 198 198 198 197 197 201
204 208 212 216 222 230 238 246 254 261 265 272 279 284 290 295 300 305 309 312 314 315 316 318 321 324 328 333 338 342 347 350 352 353 354 354 356 358 360 1 2 3 3 3 3 3 4 6 9 9 5 0 358 356 354 356 2 5 0 354 349 338 313 280 260 254 255 256 250 245 245 235 206 201 205 207 206 204 201 199 199 198 196 195 199
205 208 212 218 224 232 240 248 255 260 266 273 280 285 291 297 301 305 310 312 313 315 317 318 320 324 328 334 340 344 348 351 352 353 354 354 356 358 360 1 2 3 4 4 4 3 4 6 10 11 9 5 1 359 359 1 4 4 359 355 353 351 341 307 267 252 249 251 253 252 250 244 220 172 193 203 207 207 204 201 200 200 198 196 196
205 208 214 220 226 234 242 249 254 260 267 275 281 287 293 298 302 306 310 311 313 315 317 317 319 324 329 336 341 345 347 349 351 352 353 354 355 357 359 359 1 2 3 5 5 4 4 5 8 11 12 9 4 2 4 8 10 8 3 359 359 1 2 357 327 271 251 249 252 259 263 253 238 188 165 200 206 209 207 203 200 200 200 200 198
205 209 215 221 229 237 243 248 254 261 269 276 283 289 294 298 302 307 309 311 313 315 316 316 319 323 329 335 341 344 346 348 349 350 351 353 355 356 358 359 360 0 2 4 5 4 4 5 7 10 14 12 7 3 6 13 17 15 10 7 8 10 11 10 5 345 294 263 256 262 275 265 241 233 259 220 208 207 206 203 201 200 200 201 202
205 210 216 224 232 238 243 249 255 263 271 278 284 290 294 297 302 307 309 311 314 314 314 315 317 320 327 334 339 342 345 347 347 348 350 351 353 356 357 358 359 0 1 2 4 4 4 5 7 10 14 14 9 4 7 16 21 19 16 15 16 15 14 12 8 1 342 305 277 265 268 266 247 236 247 267 222 207 203 201 201 200 200 201 202
204 211 219 227 235 240 244 251 258 265 273 279 285 289 292 296 303 307 309 311 313 312 312 314 314 317 324 332 336 339 343 344 345 347 349 351 353 355 356 357 358 0 1 2 4 4 4 5 7 10 14 15 11 6 7 17 23 22 20 20 21 19 17 14 10 7 2 349 329 269 238 248 249 238 240 263 249 210 203 199 198 198 200 200 201
204 214 222 230 238 243 247 254 260 267 274 280 283 286 290 296 302 306 308 310 310 309 309 309 310 314 322 328 332 337 340 340 342 346 348 351 353 355 355 357 358 360 1 3 4 6 6 6 8 10 13 15 13 9 10 17 23 23 22 22 22 22 21 19 15 12 10 4 2 161 195 212 227 231 235 251 264 211 202 200 197 196 198 199 200
206 216 224 234 241 246 251 257 263 269 274 277 280 284 289 294 300 304 307 307 307 306 305 305 306 311 318 323 328 332 334 336 339 343 346 350 352 353 355 357 358 0 2 4 5 7 8 8 8 9 12 15 14 11 11 18 23 24 23 22 21 21 23 23 21 18 16 13 19 98 162 188 201 212 224 238 250 212 197 199 199 196 195 197 199
208 217 228 238 245 250 255 260 265 270 273 275 277 282 287 293 298 302 304 303 302 301 300 301 304 308 313 317 321 324 326 330 335 339 344 349 351 351 354 356 358 0 3 4 6 7 9 9 10 10 11 14 14 11 11 18 23 23 22 23 22 22 24 26 25 23 22 19 16 32 120 164 182 195 206 221 234 219 195 196 199 198 195 194 195
Height
2991 2990 2988 2987 2987 2986 2986 2986 2986 2985 2985 2985 2984 2983 2981 2980 2978 2977 2975 2972 2969 2966 2963 2960 2958 2955 2953 2950 2947 2944 2940 2937 2933 2929 2925 2921 2917 2913 2908 2903 2898 2894 2890 2886 2882 2878 2874 2871 2868 2866 2862 2857 2855 2852 2848 2845 2842 2840 2838 2835 2833 2831 2830 2827 2821 2816 2819 2822 2821 2824 2831 2834 2833 2834 2836 2836 2839 2841 2841 2842 2843 2845 2847 2850 2857
2986 2984 2983 2982 2981 2981 2981 2981 2980 2980 2980 2979 2978 2977 2976 2975 2973 2971 2969 2967 2964 2961 2958 2955 2953 2950 2947 2944 2941 2938 2934 2930 2925 2921 2917 2914 2910 2906 2901 2896 2891 2887 2883 2879 2876 2871 2865 2862 2859 2857 2853 2848 2845 2842 2838 2835 2832 2828 2826 2824 2821 2821 2821 2817 2814 2809 2808 2812 2815 2817 2823 2826 2825 2827 2831 2832 2833 2834 2835 2837 2838 2838 2839 2843 2848
2980 2979 2977 2977 2976 2976 2975 2975 2975 2974 2974 2973 2972 2972 2971 2969 2968 2966 2964 2962 2959 2956 2953 2950 2948 2945 2941 2938 2934 2931 2927 2922 2918 2913 2910 2906 2903 2899 2894 2889 2884 2880 2876 2873 2868 2863 2857 2852 2850 2847 2842 2838 2835 2832 2827 2824 2821 2817 2815 2813 2810 2810 2811 2808 2805 2802 2800 2802 2808 2811 2815 2817 2818 2819 2823 2827 2828 2828 2829 2831 2832 2833 2833 2836 2841
2975 2973 2972 2971 2970 2970 2970 2970 2969 2969 2969 2968 2967 2967 2966 2964 2963 2961 2959 2956 2953 2951 2948 2945 2942 2939 2936 2932 2928 2924 2920 2915 2911 2906 2903 2899 2895 2892 2887 2882 2877 2872 2868 2864 2859 2854 2848 2843 2840 2836 2831 2826 2823 2820 2816 2812 2810 2806 2803 2803 2801 2800 2801 2800 2798 2796 2794 2795 2799 2804 2808 2809 2811 2813 2816 2819 2820 2822 2823 2824 2825 2825 2827 2830 2834
2969 2967 2966 2965 2965 2965 2964 2964 2964 2963 2963 2963 2962 2962 2960 2959 2958 2956 2953 2951 2948 2946 2943 2940 2937 2933 2929 2926 2922 2917 2913 2908 2904 2899 2895 2891 2887 2884 2879 2874 2869 2864 2859 2854 2850 2845 2840 2835 2831 2826 2820 2814 2810 2808 2805 2802 2799 2796 2794 2793 2793 2792 2792 2793 2793 2792 2791 2789 2791 2797 2801 2802 2805 2807 2810 2811 2813 2816 2817 2817 2817 2817 2819 2823 2828
2962 2961 2960 2959 2959 2959 2958 2958 2958 2958 2958 2957 2957 2956 2955 2954 2952 2950 2948 2946 2943 2941 2938 2935 2931 2928 2924 2920 2916 2911 2907 2902 2897 2892 2888 2884 2880 2876 2871 2866 2861 2856 2851 2846 2842 2837 2832 2827 2821 2816 2809 2803 2799 2797 2795 2793 2790 2787 2786 2786 2786 2785 2785 2786 2786 2786 2786 2785 2786 2790 2794 2797 2799 2801 2804 2806 2807 2809 2811 2811 2811 2810 2812 2817 2822
2956 2955 2954 2953 2953 2953 2953 2952 2952 2952 2952 2952 2951 2951 2950 2949 2947 2945 2943 2941 2938 2935 2932 2929 2926 2922 2918 2914 2910 2905 2900 2895 2889 2885 2880 2876 2873 2868 2863 2858 2852 2848 2843 2839 2834 2828 2823 2818 2811 2805 2799 2792 2789 2787 2785 2784 2782 2780 2780 2780 2780 2780 2780 2780 2781 2781 2781 2781 2781 2784 2788 2792 2795 2797 2798 2801 2801 2802 2804 2804 2805 2805 2807 2811 2817
2950 2949 2948 2948 2948 2947 2947 2947 2946 2946 2946 2946 2946 2945 2945 2943 2942 2940 2938 2936 2933 2930 2927 2923 2920 2916 2912 2908 2903 2898 2893 2888 2883 2878 2874 2869 2865 2859 2854 2849 2844 2839 2834 2830 2825 2819 2813 2808 2802 2796 2790 2784 2781 2779 2778 2777 2775 2774 2775 2775 2775 2775 2775 2775 2776 2776 2776 2776 2776 2779 2783 2787 2791 2792 2793 2794 2794 2795 2797 2798 2799 2800 2802 2805 2811
2944 2943 2942 2942 2942 2942 2942 2941 2941 2941 2941 2941 2941 2940 2939 2938 2937 2936 2934 2931 2928 2925 2921 2918 2914 2910 2906 2901 2897 2892 2887 2882 2877 2872 2867 2862 2857 2851 2845 2839 2834 2830 2825 2820 2815 2809 2803 2798 2792 2787 2782 2778 2774 2772 2771 2771 2769 2769 2770 2770 2769 2769 2770 2770 2771 2771 2771 2770 2771 2775 2778 2781 2784 2786 2787 2787 2787 2788 2791 2792 2792 2792 2794 2798 2805
2937 2937 2936 2936 2936 2936 2936 2936 2936 2936 2936 2936 2936 2935 2935 2934 2933 2931 2929 2926 2923 2920 2916 2912 2908 2904 2900 2895 2891 2886 2881 2876 2871 2866 2860 2855 2849 2844 2838 2833 2828 2823 2817 2813 2808 2801 2796 2790 2784 2779 2775 2772 2770 2767 2765 2765 2764 2764 2765 2765 2764 2764 2765 2765 2766 2766 2765 2765 2766 2770 2772 2774 2777 2779 2780 2780 2780 2782 2785 2786 2785 2785 2787 2791 2798
2931 2931 2930 2930 2930 2930 2930 2930 2931 2931 2931 2931 2931 2931 2930 2929 2928 2927 2924 2921 2918 2915 2911 2907 2903 2899 2894 2890 2885 2880 2875 2870 2865 2860 2854 2849 2843 2838 2833 2828 2822 2816 2810 2804 2799 2794 2789 2783 2778 2772 2769 2767 2765 2763 2761 2760 2760 2759 2759 2760 2760 2759 2759 2759 2759 2760 2760 2759 2760 2763 2765 2767 2770 2773 2774 2774 2775 2777 2780 2781 2780 2781 2782 2785 2792
2925 2925 2924 2924 2924 2924 2925 2925 2926 2926 2926 2926 2926 2926 2926 2925 2924 2922 2919 2916 2913 2909 2906 2902 2897 2893 2889 2884 2880 2875 2870 2865 2860 2854 2849 2843 2837 2831 2826 2821 2816 2809 2803 2797 2791 2786 2781 2776 2772 2768 2764 2762 2760 2758 2756 2755 2755 2755 2754 2754 2755 2754 2754 2753 2753 2754 2754 2753 2753 2755 2758 2760 2764 2767 2769 2770 2771 2772 2774 2775 2777 2777 2778 2780 2784
2919 2919 2919 2919 2919 2919 2920 2920 2921 2921 2922 2922 2922 2921 2921 2920 2919 2916 2914 2911 2907 2904 2900 2896 2892 2887 2883 2879 2874 2870 2865 2860 2855 2849 2844 2838 2832 2826 2820 2814 2808 2802 2796 2790 2784 2779 2774 2769 2766 2763 2760 2757 2754 2752 2751 2751 2750 2750 2749 2749 2748 2748 2748 2747 2747 2747 2748 2747 2746 2747 2751 2754 2757 2760 2764 2766 2767 2768 2769 2771 2773 2773 2773 2774 2777
2914 2913 2914 2914 2914 2915 2915 2915 2916 2917 2917 2917 2917 2917 2916 2915 2914 2911 2908 2906 2902 2899 2895 2891 2887 2882 2878 2873 2869 2864 2859 2854 2850 2845 2839 2834 2827 2821 2814 2808 2802 2796 2790 2784 2778 2772 2767 2763 2759 2756 2754 2751 2749 2747 2745 2744 2744 2743 2743 2742 2741 2740 2740 2740 2740 2740 2740 2740 2738 2739 2744 2749 2751 2754 2759 2761 2762 2764 2766 2767 2768 2769 2769 2769 2772
2908 2908 2908 2909 2909 2910 2910 2911 2912 2913 2913 2913 2912 2912 2912 2910 2909 2906 2903 2900 2897 2894 2890 2886 2881 2877 2872 2868 2864 2859 2854 2849 2845 2841 2836 2830 2823 2816 2809 2802 2796 2790 2783 2778 2772 2766 2761 2756 2752 2749 2746 2744 2743 2741 2740 2738 2736 2735 2733 2732 2731 2730 2729 2729 2731 2732 2732 2731 2731 2732 2736 2742 2745 2748 2753 2757 2759 2761 2762 2762 2764 2765 2765 2765 2769
2902 2902 2903 2904 2905 2906 2906 2907 2908 2908 2908 2908 2908 2908 2907 2906 2904 2901 2898 2896 2892 2889 2885 2881 2876 2872 2868 2863 2859 2854 2849 2844 2840 2836 2830 2824 2817 2810 2803 2796 2789 2783 2776 2770 2765 2760 2755 2750 2746 2742 2739 2737 2736 2735 2734 2732 2729 2727 2725 2723 2721 2718 2717 2718 2721 2723 2723 2723 2723 2725 2729 2734 2739 2742 2747 2752 2756 2758 2758 2757 2759 2760 2761 2762 2765
2896 2897 2898 2899 2900 2901 2902 2903 2903 2904 2904 2904 2903 2903 2902 2901 2899 2896 2894 2891 2887 2884 2880 2876 2871 2867 2863 2858 2853 2849 2845 2840 2835 2831 2825 2818 2811 2804 2796 2790 2784 2777 2770 2764 2758 2753 2748 2744 2739 2735 2731 2730 2729 2728 2728 2726 2724 2721 2719 2717 2714 2711 2710 2710 2711 2713 2715 2715 2716 2719 2723 2728 2734 2737 2742 2746 2750 2753 2753 2752 2753 2756 2756 2757 2760
2891 2892 2893 2895 2896 2897 2898 2898 2899 2899 2899 2899 2899 2899 2897 2896 2894 2891 2889 2886 2883 2879 2875 2871 2867 2863 2858 2853 2848 2844 2841 2836 2830 2825 2819 2812 2804 2797 2790 2784 2778 2771 2764 2758 2752 2746 2740 2736 2733 2729 2725 2723 2722 2721 2721 2720 2718 2716 2714 2711 2708 2705 2705 2705 2705 2705 2706 2707 2710 2715 2719 2723 2728 2731 2735 2740 2744 2748 2748 2746 2749 2752 2753 2753 2756
2885 2887 2888 2889 2891 2892 2893 2894 2894 2894 2894 2894 2894 2894 2893 2891 2889 2887 2884 2881 2878 2875 2871 2867 2863 2858 2854 2849 2844 2840 2836 2832 2826 2819 2812 2805 2797 2791 2784 2778 2773 2766 2758 2751 2745 2740 2734 2729 2726 2723 2719 2717 2715 2714 2714 2714 2711 2710 2708 2705 2701 2699 2700 2701 2700 2699 2700 2702 2706 2710 2714 2719 2722 2725 2728 2732 2737 2741 2741 2742 2746 2748 2749 2750 2753
2880 2881 2883 2884 2886 2887 2888 2889 2889 2889 2890 2890 2890 2889 2888 2887 2885 2882 2880 2877 2873 2870 2866 2862 2858 2853 2849 2845 2841 2836 2831 2826 2820 2813 2806 2800 2793 2787 2780 2773 2767 2760 2752 2744 2738 2733 2728 2723 2719 2717 2714 2711 2709 2708 2708 2707 2705 2703 2702 2699 2695 2695 2697 2698 2696 2695 2696 2698 2701 2704 2708 2712 2715 2718 2721 2724 2729 2733 2735 2737 2741 2743 2745 2747 2749
2874 2876 2877 2880 2881 2883 2884 2884 2884 2885 2885 2885 2885 2885 2884 2882 2880 2878 2875 2872 2869 2865 2861 2858 2853 2849 2845 2840 2836 2831 2825 2820 2814 2807 2801 2795 2789 2782 2776 2769 2761 2754 2747 2739 2733 2727 2722 2718 2714 2711 2709 2706 2704 2703 2702 2702 2700 2697 2695 2693 2692 2693 2694 2694 2693 2693 2693 2694 2698 2701 2704 2707 2710 2711 2714 2718 2723 2727 2729 2732 2735 2737 2740 2742 2745
2868 2870 2872 2875 2877 2878 2879 2880 2880 2881 2881 2881 2881 2880 2879 2878 2876 2873 2871 2868 2865 2861 2857 2853 2849 2844 2840 2836 2831 2826 2819 2813 2807 2801 2795 2790 2784 2778 2771 2764 2758 2750 2743 2736 2729 2722 2717 2713 2709 2706 2704 2701 2700 2698 2697 2696 2694 2692 2690 2690 2690 2691 2691 2691 2690 2690 2690 2691 2694 2697 2700 2704 2705 2706 2710 2715 2719 2722 2725 2728 2731 2733 2735 2738 2741
2863 2865 2867 2870 2872 2874 2875 2875 2876 2877 2877 2877 2877 2876 2875 2873 2871 2868 2866 2863 2860 2857 2853 2849 2844 2840 2836 2831 2825 2820 2813 2807 2801 2795 2790 2785 2780 2774 2767 2761 2754 2747 2739 2732 2725 2719 2713 2709 2705 2702 2700 2697 2696 2694 2692 2691 2690 2689 2688 2688 2688 2688 2687 2687 2687 2687 2687 2688 2690 2692 2695 2699 2701 2703 2708 2712 2715 2719 2722 2724 2727 2729 2730 2734 2737
2857 2859 2862 2865 2867 2869 2870 2871 2873 2873 2873 2873 2872 2871 2870 2868 2866 2864 2861 2859 2856 2852 2848 2844 2839 2835 2831 2826 2820 2813 2807 2801 2796 2791 2785 2780 2774 2769 2763 2757 2751 2745 2737 2730 2722 2715 2710 2705 2702 2699 2696 2694 2693 2690 2688 2687 2686 2686 2685 2685 2685 2684 2683 2683 2683 2684 2684 2685 2686 2688 2691 2694 2696 2699 2705 2708 2710 2715 2718 2720 2722 2724 2726 2730 2733
2851 2854 2856 2859 2862 2863 2865 2867 2868 2869 2869 2868 2867 2867 2865 2863 2861 2859 2857 2855 2851 2848 2843 2839 2834 2830 2826 2820 2814 2808 2801 2797 2792 2786 2781 2775 2769 2764 2758 2753 2747 2742 2735 2728 2721 2713 2707 2703 2699 2696 2694 2691 2689 2686 2685 2684 2683 2682 2682 2682 2682 2681 2680 2680 2681 2681 2682 2682 2683 2685 2687 2689 2692 2696 2701 2703 2705 2709 2713 2714 2717 2720 2723 2727 2729
2846 2849 2850 2853 2855 2857 2860 2862 2863 2864 2864 2863 2863 2862 2861 2859 2857 2855 2853 2851 2847 2843 2839 2834 2830 2826 2820 2814 2808 2803 2797 2792 2786 2781 2776 2770 2764 2759 2753 2748 2743 2738 2732 2726 2719 2712 2706 2701 2697 2694 2691 2688 2685 2682 2681 2681 2679 2679 2680 2680 2679 2679 2678 2678 2678 2678 2679 2679 2680 2682 2684 2686 2689 2693 2696 2697 2699 2703 2707 2709 2711 2715 2720 2724 2726
2841 2844 2845 2847 2849 2852 2854 2857 2858 2858 2859 2859 2858 2857 2856 2854 2852 2851 2849 2846 2843 2839 2834 2830 2825 2820 2814 2809 2804 2798 2793 2787 2780 2775 2771 2766 2760 2754 2749 2743 2738 2733 2728 2722 2716 2710 2704 2699 2695 2691 2688 2685 2682 2680 2679 2678 2678 2677 2678 2678 2677 2677 2676 2675 2675 2675 2675 2676 2677 2678 2680 2682 2686 2688 2690 2692 2694 2698 2703 2705 2707 2711 2717 2721 2723
2836 2838 2840 2841 2843 2846 2849 2851 2852 2853 2853 2854 2854 2853 2852 2850 2848 2847 2845 2842 2839 2835 2830 2825 2820 2814 2809 2804 2799 2794 2789 2783 2777 2771 2766 2761 2755 2750 2746 2740 2734 2728 2723 2717 2711 2706 2701 2696 2692 2689 2686 2683 2681 2678 2677 2676 2676 2676 2676 2675 2675 2675 2674 2673 2673 2672 2672 2673 2673 2674 2676 2678 2681 2683 2685 2687 2690 2694 2699 2701 2703 2708 2714 2718 2720
2832 2834 2835 2836 2838 2841 2844 2845 2846 2847 2848 2849 2849 2848 2847 2846 2844 2843 2841 2838 2834 2830 2825 2820 2815 2810 2804 2799 2794 2790 2785 2780 2775 2769 2764 2759 2753 2748 2743 2738 2732 2726 2719 2713 2708 2703 2699 2694 2690 2686 2684 2681 2679 2677 2675 2675 2674 2674 2674 2673 2673 2673 2672 2671 2670 2669 2669 2670 2670 2670 2672 2674 2676 2678 2681 2683 2687 2691 2695 2697 2700 2705 2711 2713 2716
2828 2829 2830 2832 2834 2836 2838 2840 2841 2842 2843 2844 2844 2844 2843 2842 2840 2839 2837 2834 2830 2826 2821 2816 2810 2805 2800 2796 2791 2786 2782 2777 2773 2768 2764 2759 2753 2747 2742 2737 2731 2725 2719 2713 2707 2701 2696 2691 2687 2684 2681 2679 2677 2676 2674 2673 2673 2672 2672 2671 2670 2670 2670 2669 2668 2667 2666 2665 2666 2666 2668 2670 2672 2674 2677 2680 2685 2689 2692 2694 2697 2701 2706 2709 2712
2824 2825 2826 2828 2830 2832 2834 2835 2836 2837 2838 2839 2839 2839 2839 2838 2837 2836 2833 2829 2825 2821 2816 2811 2806 2801 2797 2793 2789 2785 2780 2775 2771 2766 2762 2757 2752 2746 2741 2736 2730 2724 2717 2711 2706 2700 2694 2689 2685 2682 2679 2677 2675 2674 2672 2671 2671 2670 2670 2669 2668 2668 2667 2667 2666 2665 2663 2662 2662 2663 2664 2666 2668 2671 2674 2678 2682 2686 2689 2691 2693 2697 2701 2705 2709
2819 2821 2822 2823 2825 2828 2829 2830 2831 2832 2833 2834 2834 2834 2834 2833 2832 2831 2829 2826 2822 2817 2812 2807 2803 2798 2794 2790 2787 2783 2779 2774 2769 2764 2760 2755 2749 2744 2739 2733 2729 2724 2718 2712 2706 2700 2694 2688 2683 2680 2678 2675 2673 2672 2670 2669 2668 2667 2666 2666 2665 2665 2664 2664 2663 2662 2661 2661 2660 2660 2661 2663 2665 2668 2671 2674 2678 2682 2685 2687 2689 2693 2697 2701 2704
2814 2816 2818 2819 2821 2823 2824 2825 2826 2827 2828 2830 2830 2830 2830 2829 2828 2826 2823 2821 2818 2814 2809 2805 2801 2797 2793 2788 2784 2781 2777 2772 2767 2763 2758 2753 2748 2743 2738 2732 2726 2722 2717 2712 2707 2700 2694 2688 2683 2680 2677 2674 2672 2670 2668 2666 2665 2663 2662 2662 2661 2661 2661 2660 2660 2659 2659 2659 2658 2658 2659 2660 2662 2664 2666 2669 2672 2676 2679 2682 2685 2689 2693 2697 2701
2809 2812 2814 2815 2817 2818 2819 2821 2822 2823 2824 2825 2826 2826 2826 2825 2824 2822 2819 2816 2813 2810 2806 2802 2799 2795 2791 2787 2783 2779 2774 2770 2765 2760 2755 2751 2746 2743 2739 2734 2729 2723 2717 2711 2705 2699 2694 2689 2684 2680 2677 2673 2671 2668 2666 2664 2662 2660 2659 2658 2657 2657 2657 2656 2656 2656 2656 2656 2656 2656 2657 2658 2659 2661 2662 2664 2667 2670 2673 2677 2681 2685 2689 2694 2698
2805 2808 2810 2811 2812 2814 2815 2816 2817 2819 2820 2821 2821 2822 2822 2821 2820 2818 2816 2814 2811 2807 2803 2799 2796 2792 2788 2784 2780 2776 2771 2767 2763 2758 2753 2749 2746 2742 2739 2735 2731 2724 2717 2711 2704 2699 2693 2688 2684 2680 2676 2673 2670 2667 2665 2662 2660 2658 2657 2655 2654 2654 2653 2653 2652 2652 2652 2652 2653 2653 2654 2655 2656 2658 2659 2661 2663 2665 2668 2673 2677 2681 2687 2692 2697
2800 2804 2806 2807 2808 2810 2811 2812 2813 2814 2816 2817 2817 2818 2818 2817 2816 2815 2813 2811 2808 2804 2800 2796 2792 2788 2784 2780 2776 2773 2769 2766 2762 2757 2752 2748 2744 2741 2738 2733 2727 2721 2715 2710 2704 2699 2694 2688 2684 2680 2676 2672 2669 2666 2663 2661 2658 2656 2654 2653 2652 2651 2650 2650 2649 2648 2648 2649 2649 2650 2651 2652 2653 2655 2657 2658 2660 2662 2664 2669 2674 2678 2684 2690 2695
2796 2800 2801 2802 2804 2806 2807 2808 2809 2810 2811 2813 2813 2814 2813 2813 2812 2811 2810 2807 2804 2801 2797 2793 2789 2785 2781 2778 2774 2770 2767 2764 2759 2755 2751 2748 2744 2740 2736 2730 2725 2719 2714 2708 2703 2699 2694 2689 2684 2680 2676 2672 2668 2665 2662 2659 2656 2654 2652 2651 2650 2648 2647 2647 2646 2645 2645 2646 2646 2646 2647 2648 2650 2652 2653 2655 2657 2659 2662 2666 2671 2676 2681 2687 2692
2792 2795 2797 2798 2800 2801 2803 2804 2805 2806 2808 2809 2809 2809 2809 2809 2808 2807 2806 2803 2800 2797 2794 2791 2788 2784 2780 2776 2772 2768 2765 2761 2757 2753 2751 2747 2743 2739 2734 2728 2724 2718 2713 2707 2703 2698 2694 2689 2684 2680 2676 2672 2668 2664 2661 2657 2654 2652 2650 2648 2647 2646 2644 2643 2643 2643 2643 2643 2643 2643 2644 2645 2646 2648 2650 2651 2654 2657 2660 2665 2669 2674 2679 2684 2688
2788 2791 2793 2794 2796 2797 2798 2800 2801 2802 2804 2804 2804 2805 2805 2805 2805 2803 2801 2799 2796 2793 2790 2788 2785 2782 2778 2774 2770 2766 2762 2758 2755 2752 2749 2744 2740 2736 2732 2728 2723 2718 2713 2707 2703 2698 2694 2689 2684 2680 2676 2672 2668 2664 2660 2656 2653 2650 2648 2646 2644 2643 2642 2641 2640 2640 2640 2641 2641 2641 2642 2643 2644 2645 2647 2649 2652 2655 2659 2664 2668 2672 2677 2681 2686
2784 2787 2789 2790 2792 2793 2794 2796 2797 2798 2799 2800 2800 2800 2801 2801 2801 2799 2797 2795 2792 2790 2787 2785 2782 2779 2776 2772 2769 2765 2761 2756 2753 2750 2746 2743 2739 2735 2731 2727 2723 2718 2713 2708 2703 2698 2694 2689 2684 2680 2676 2672 2668 2664 2660 2656 2652 2648 2646 2644 2642 2641 2640 2639 2638 2638 2638 2639 2639 2640 2640 2641 2642 2643 2645 2647 2650 2653 2657 2662 2667 2671 2674 2678 2683
2781 2783 2785 2787 2788 2789 2790 2792 2793 2794 2795 2795 2796 2797 2797 2797 2797 2795 2793 2791 2788 2786 2784 2781 2779 2776 2773 2770 2766 2763 2759 2755 2751 2748 2745 2741 2737 2733 2730 2726 2722 2717 2713 2708 2703 2699 2694 2689 2684 2680 2676 2672 2668 2664 2660 2655 2651 2648 2645 2643 2640 2639 2638 2637 2637 2637 2637 2637 2638 2639 2639 2639 2640 2641 2643 2645 2648 2651 2655 2659 2665 2669 2672 2676 2680
2778 2780 2782 2783 2784 2785 2787 2789 2790 2790 2791 2792 2793 2794 2794 2793 2792 2791 2789 2787 2785 2783 2780 2778 2776 2773 2770 2767 2764 2761 2757 2754 2750 2747 2744 2741 2737 2733 2729 2725 2721 2717 2713 2708 2703 2699 2694 2689 2685 2680 2676 2672 2668 2663 2659 2655 2650 2647 2644 2642 2639 2638 2637 2636 2636 2636 2636 2637 2638 2638 2638 2638 2639 2640 2641 2643 2645 2649 2652 2657 2662 2667 2670 2674 2678
2774 2777 2778 2779 2780 2782 2784 2785 2786 2787 2788 2789 2790 2790 2790 2790 2789 2787 2785 2783 2781 2779 2777 2775 2773 2770 2768 2765 2762 2759 2755 2753 2750 2747 2744 2740 2737 2733 2730 2726 2721 2718 2713 2709 2704 2700 2695 2690 2686 2681 2677 2673 2668 2663 2659 2654 2649 2646 2644 2642 2639 2637 2636 2635 2636 2636 2636 2636 2637 2637 2637 2636 2636 2637 2638 2640 2642 2646 2650 2654 2659 2664 2668 2671 2675
2772 2774 2775 2776 2777 2779 2780 2781 2783 2784 2785 2786 2787 2787 2786 2786 2785 2783 2782 2780 2778 2776 2774 2772 2770 2768 2765 2763 2760 2757 2755 2752 2749 2747 2743 2740 2736 2733 2729 2726 2722 2718 2714 2710 2706 2701 2696 2692 2687 2684 2680 2675 2670 2666 2660 2655 2649 2646 2644 2642 2640 2638 2636 2635 2635 2635 2636 2635 2635 2634 2634 2633 2633 2633 2634 2636 2639 2643 2647 2651 2656 2660 2665 2668 2672
2769 2771 2772 2773 2774 2775 2777 2778 2779 2781 2782 2783 2783 2783 2783 2783 2781 2780 2778 2776 2774 2772 2771 2769 2767 2765 2763 2761 2759 2756 2754 2751 2749 2746 2743 2740 2736 2733 2729 2725 2722 2718 2715 2711 2706 2702 2697 2693 2688 2684 2681 2676 2672 2668 2663 2656 2651 2648 2645 2642 2640 2637 2635 2634 2634 2634 2633 2633 2632 2630 2629 2628 2628 2629 2631 2633 2637 2641 2645 2648 2652 2656 2661 2665 2669
2767 2768 2769 2770 2771 2772 2774 2775 2776 2778 2779 2780 2780 2780 2780 2779 2778 2776 2775 2773 2771 2769 2768 2766 2764 2763 2761 2759 2757 2755 2753 2750 2748 2745 2742 2739 2736 2732 2729 2725 2722 2718 2714 2711 2707 2703 2698 2694 2689 2685 2681 2677 2674 2670 2664 2658 2653 2649 2646 2643 2640 2637 2635 2633 2632 2631 2630 2628 2627 2625 2624 2624 2625 2627 2631 2634 2636 2639 2643 2645 2648 2652 2657 2661 2666
2764 2765 2766 2767 2768 2770 2771 2772 2774 2775 2776 2776 2777 2777 2777 2776 2774 2773 2771 2770 2768 2767 2765 2763 2762 2760 2759 2757 2755 2753 2752 2749 2747 2744 2742 2738 2735 2732 2729 2725 2722 2718 2715 2711 2707 2703 2699 2694 2690 2685 2681 2677 2675 2671 2666 2660 2655 2651 2647 2643 2640 2637 2634 2632 2630 2628 2626 2624 2622 2621 2620 2622 2624 2627 2631 2634 2635 2637 2640 2642 2645 2649 2653 2658 2663
2762 2763 2764 2765 2766 2767 2768 2770 2771 2772 2773 2773 2774 2774 2773 2772 2771 2770 2768 2767 2766 2764 2763 2761 2760 2758 2757 2755 2753 2752 2750 2748 2746 2744 2741 2738 2734 2731 2728 2725 2722 2718 2715 2711 2708 2704 2700 2695 2691 2686 2682 2678 2676 2673 2668 2661 2656 2652 2648 2644 2640 2637 2635 2631 2628 2625 2623 2621 2619 2619 2620 2622 2625 2628 2630 2632 2634 2635 2637 2639 2642 2645 2649 2654 2659
2759 2761 2762 2762 2763 2764 2766 2767 2768 2769 2770 2771 2771 2771 2770 2769 2768 2767 2765 2764 2763 2762 2760 2759 2758 2756 2755 2753 2752 2750 2749 2747 2745 2743 2740 2737 2734 2731 2727 2724 2721 2718 2715 2712 2708 2704 2701 2696 2692 2688 2684 2680 2676 2673 2669 2663 2658 2654 2649 2645 2642 2639 2636 2632 2628 2625 2623 2621 2620 2620 2621 2623 2625 2627 2630 2631 2632 2633 2635 2637 2640 2643 2647 2651 2656
2757 2758 2759 2760 2761 2762 2764 2765 2766 2767 2767 2768 2768 2768 2767 2766 2765 2764 2763 2762 2761 2760 2758 2757 2755 2754 2752 2751 2750 2749 2747 2746 2744 2742 2739 2736 2733 2730 2727 2724 2721 2718 2715 2711 2708 2705 2701 2697 2693 2689 2685 2681 2677 2674 2670 2665 2660 2655 2651 2647 2644 2640 2637 2633 2630 2627 2625 2623 2623 2622 2623 2624 2625 2627 2629 2630 2631 2632 2633 2636 2639 2642 2645 2648 2653
2755 2756 2757 2758 2759 2760 2762 2763 2764 2764 2765 2765 2765 2765 2764 2763 2762 2761 2760 2759 2759 2757 2756 2755 2753 2752 2750 2749 2748 2747 2746 2745 2743 2740 2738 2735 2733 2730 2727 2724 2721 2718 2715 2712 2708 2705 2702 2698 2694 2690 2686 2681 2678 2675 2672 2667 2662 2659 2655 2650 2646 2642 2638 2635 2632 2630 2627 2626 2625 2624 2624 2624 2625 2626 2627 2629 2630 2631 2632 2635 2638 2641 2644 2646 2650